Location: Newark
(45.0667°N, 7.8333°E)
Time: 05:38:07
(UTC+00:00)

LilacSat-2 - Visible Passes

Search period start: 20 October 2019 00:00
Search period end: 30 October 2019 00:00
Orbit: 513 x 536 km, 97.5° (Epoch: 19 October)

Date Brightness Start Highest point End Pass type
(mag) Time Alt. Az. Time Alt. Az. Time Alt. Az.
20 Oct ? 04:56:03 10° NNE 04:59:33 36° E 05:03:01 10° SSE visible
20 Oct ? 17:13:39 10° SSW 17:16:53 26° W 17:20:07 10° NW visible
21 Oct ? 04:44:07 10° NE 04:47:19 26° E 04:50:30 10° SSE visible
21 Oct ? 17:01:08 10° SSW 17:04:39 35° W 17:08:11 10° NNW visible
22 Oct ? 04:32:18 10° NE 04:35:04 19° E 04:37:48 10° SE visible
23 Oct ? 04:20:44 10° ENE 04:22:47 14° E 04:24:51 10° SE visible
24 Oct ? 04:10:03 10° E 04:10:30 10° E 04:10:56 10° E visible
25 Oct ? 17:49:24 10° WSW 17:50:32 11° W 17:51:40 10° WNW visible
26 Oct ? 05:17:03 10° NNE 05:20:48 66° ESE 05:24:32 10° S visible
26 Oct ? 17:35:58 10° SW 17:38:15 15° W 17:40:32 10° NW visible
27 Oct ? 05:04:58 10° NNE 05:08:36 46° E 05:12:13 10° S visible
27 Oct ? 17:23:06 10° SW 17:25:59 20° W 17:28:52 10° NW visible
28 Oct ? 04:52:57 10° NNE 04:56:23 33° E 04:59:48 10° SSE visible
28 Oct ? 17:10:27 10° SSW 17:13:44 28° W 17:17:01 10° NW visible
29 Oct ? 04:41:02 10° NE 04:44:09 24° E 04:47:15 10° SSE visible
29 Oct ? 16:57:57 10° SSW 17:01:30 38° W 17:05:03 10° NNW visible
